Location: Hoyos del Collado
(40.3594°N, 5.2003°W)
Time: 10:18:36
(UTC+00:00)

Cosmos 1898 Rocket - Visible Passes

Search period start: 24 July 2024 00:00
Search period end: 03 August 2024 00:00
Orbit: 751 x 781 km, 74.0° (Epoch: 23 July)

Date Brightness Start Highest point End Pass type
(mag) Time Alt. Az. Time Alt. Az. Time Alt. Az.
24 Jul 4.2 03:57:47 10° NNW 04:03:02 61° ENE 04:08:16 10° SSE visible
25 Jul 5.2 03:20:26 10° N 03:25:18 35° ENE 03:30:09 10° SE visible
26 Jul 6.0 02:43:22 10° N 02:47:27 22° ENE 02:51:30 10° ESE visible
26 Jul 3.8 04:24:38 10° NNW 04:29:43 48° WSW 04:34:48 10° S visible
27 Jul 6.4 02:06:53 10° NNE 02:09:27 13° NE 02:12:00 10° E visible
27 Jul 3.5 03:46:51 10° NNW 03:52:11 85° WSW 03:57:29 10° SSE visible
28 Jul 4.2 03:09:19 10° N 03:14:32 56° ENE 03:19:45 10° SSE visible
29 Jul 5.1 02:31:59 10° N 02:36:47 33° ENE 02:41:33 10° SE visible
29 Jul 4.3 04:14:07 10° NW 04:18:41 30° W 04:23:14 10° SSW visible
30 Jul 5.9 01:54:58 10° N 01:58:53 20° ENE 02:02:48 10° ESE visible
30 Jul 3.7 03:36:05 10° NNW 03:41:14 52° WSW 03:46:09 11° S visible
31 Jul 6.3 01:18:38 10° NNE 01:20:52 13° NE 01:23:07 10° ENE visible
31 Jul 3.5 02:58:20 10° NNW 03:03:41 89° ENE 03:07:21 21° SSE visible
01 Aug 4.2 02:20:49 10° N 02:26:01 52° ENE 02:28:57 25° SE visible
01 Aug 4.9 04:03:59 10° NW 04:07:34 19° W 04:09:04 17° WSW visible
02 Aug 5.1 01:43:32 10° N 01:48:14 31° ENE 01:50:48 21° ESE visible
02 Aug 4.2 03:25:31 10° NW 03:30:12 32° W 03:30:56 31° WSW visible
